Hourly Data Report for October 08, 2015

All times are specified in Local Standard Time (LST). Add 1 hour to adjust for Daylight Saving Time where and when it is observed.

WINNIPEG A CS
MANITOBA

49°55'00.000" N
97°14'58.000" W
238.70 m
502S001
71849
XWG

Download Data

Hourly Data (October 2015)
Hourly Data Report for October 8, 2015
Temp Definition
°C
Dew Point Temp Definition
°C
Rel Hum Definition
%
Wind Dir Definition
10's deg

Wind Spd Definition
km/h
Visibility Definition
km
Stn Press Definition
kPa
Hmdx Definition


Wind Chill Definition


Weather Definition


TIME
00:00 7.3 6.0 92 8 16   98.34     LegendNANA
01:00 7.4 6.1 92 9 14   98.34     LegendNANA
02:00 6.9 6.3 96 3 18   98.39     LegendNANA
03:00 6.9 6.3 96 3 16   98.45     LegendNANA
04:00 7.0 6.5 97 3 17   98.51     LegendNANA
05:00 7.0 6.4 96 2 18   98.60     LegendNANA
06:00 7.2 6.5 95 1 15   98.67     LegendNANA
07:00 7.4 6.6 95 1 13   98.73     LegendNANA
08:00 8.6 6.9 89 3 21   98.79     LegendNANA
09:00 9.0 7.5 91 34 12   98.87     LegendNANA
10:00 9.2 7.1 87 34 15   98.95     LegendNANA
11:00 9.5 7.5 87 34 20   99.02     LegendNANA
12:00 10.2 7.6 84 33 17   99.06     LegendNANA
13:00 9.8 7.4 85 33 19   99.09     LegendNANA
14:00 9.3 7.8 90 34 16   99.10     LegendNANA
15:00 9.5 7.7 88 34 14   99.09     LegendNANA
16:00 9.9 7.5 85 32 14   99.14     LegendNANA
17:00 9.6 6.6 82 31 16   99.19     LegendNANA
18:00 8.8 6.1 83 31 15   99.23     LegendNANA
19:00 8.5 6.2 86 31 11   99.30     LegendNANA
20:00 6.8 5.1 89 30 9   99.36     LegendNANA
21:00 5.3 4.5 94 28 8   99.38     LegendNANA
22:00 4.6 3.7 94 26 10   99.41     LegendNANA
23:00 2.6 2.4 98 24 9   99.43     LegendNANA

Notes on Data Quality.

Legend

  • E = Estimated
  • M = Missing
  • NA = Not Available
  • ‡ = Partner data that is not subject to review by the National Climate Archives
Date modified: